www.pogodaiklimat.ru

Погода и климат >> Архив погоды >> Аргентина >> Buenos Aires Aeropuerto


АРХИВ ПОГОДЫ в Buenos Aires Aeropuerto

Время (UTC), дата Ветер
(напр.,м/с)
 
Видим.   Явления Облачность Т
(С)
Тd
(С)
f
(%)
Тe
(С)
Тes
(С)
Комфортность P
(гПа)
Po
(гПа)
Тmin
(С)
Tmax
(С)
R
(мм)
R24
(мм)
S
(см)
00 18.05 СЗ 5 10 км {дождь} 5/3 450 м
[St Ac As Cs]
+11.2 +8.6 84 +8 +8 холодно 1017.0 1016.4 +11.2 +13.5 0.0
03 18.05 З 2 10 км 1/1 360 м
[St]
+10.0 +8.2 89 +9 +9 прохладно 1016.7 1016.0
06 18.05 З 2 10 км ясно +9.8 +8.0 89 +8 +8 прохладно 1017.0 1016.4
09 18.05 СЗ 2 10 км 1/1 300 м
[St]
+9.6 +8.4 92 +8 +8 прохладно 1017.0 1016.4
12 18.05 З 2 10 км 6/0
[Ac und]
+11.2 +8.4 83 +10 +10 по сезону 1018.3 1017.6 +9.3 +11.5 3
15 18.05 Ю 2 10 км 3/0
[Ac trans]
+16.5 +10.1 66 +17 +23 тепло 1017.1 1016.4
18 18.05 С 3 8000 м мгла 5/0
[Ac cast Ci fib]
+16.8 +11.1 69 +17 +19 по сезону 1015.5 1014.8
21 18.05 СЗ 4 10 км 9/4 1050 м
[Sc Ac As]
+16.4 +12.1 76 +16 +16 по сезону 1016.3 1015.6
00 19.05 СЗ 3 8000 м слабый ливневой дождь, в посл. час гроза 10/10 120 м
[St As op]
+13.0 +9.1 77 +12 +12 по сезону 1018.2 1017.6 +11.2 +18.4 5
03 19.05 З 2 10 км {дождь} 6/0
[Ac As]
+12.4 +9.7 84 +11 +11 по сезону 1018.7 1018.0
06 19.05 Ю 3 10 км {дождь} ясно +12.0 +8.0 76 +11 +11 по сезону 1018.7 1018.0 0.3
09 19.05 ЮЗ 5 10 км 4/4 360 м
[St]
+9.9 +7.6 86 +7 +7 холодно 1018.2 1017.6
12 19.05 ЮЗ 4 10 км 9/9 360 м
[St]
+10.1 +7.6 84 +8 +8 прохладно 1020.4 1019.7 +9.7 +13.0 5
15 19.05 Ю 3 10 км 8/8 540 м
[Sc]
+12.5 +7.9 74 +11 +12 прохладно 1021.0 1020.4
18 19.05 Ю 3 10 км 6/6 750 м
[Sc]
+14.5 +7.7 64 +14 +15 по сезону 1020.0 1019.3
21 19.05 Ю 4 10 км 3/1 900 м
[Sc Ac trans]
+14.3 +8.2 67 +13 +13 по сезону 1020.0 1019.3
00 20.05 Ю 3 10 км 3/1 660 м
[Sc Ac trans]
+13.1 +9.2 77 +12 +12 по сезону 1020.8 1020.1 +10.1 +15.5
03 20.05 Ю 3 10 км ясно +11.8 +8.8 82 +10 +10 прохладно 1020.8 1020.1
06 20.05 Ю 2 10 км 3/0
[Ci fib]
+10.1 +7.6 84 +9 +9 прохладно 1020.1 1019.4
09 20.05 Ю 2 10 км ясно +9.2 +6.6 84 +8 +8 прохладно 1019.0 1018.4
12 20.05 Ю 2 10 км 4/0
[Cs]
+11.0 +6.8 75 +10 +11 по сезону 1019.2 1018.5 +8.8 +13.1
15 20.05 С 2 10 км 5/0
[Cs]
+15.0 +9.2 68 +15 +22 по сезону 1019.0 1018.4
18 20.05 С 3 10 км 9/0
[Cs]
+15.0 +9.2 68 +15 +18 по сезону 1017.1 1016.4
21 20.05 С 2 10 км 9/1 900 м
[Sc As trans Cs]
+14.2 +10.0 76 +14 +14 по сезону 1016.2 1015.6
03 21.05 З 2 10 км 10/0
[Ac As Cs]
+13.2 +8.0 71 +13 +13 по сезону 1017.3 1016.6
06 21.05 СЗ 3 10 км 10/0
[Ac As]
+11.8 +8.2 79 +10 +10 по сезону 1016.7 1016.0
09 21.05 СЗ 2 10 км 10/0
[Ac As]
+12.2 +8.2 77 +12 +12 по сезону 1016.9 1016.2
12 21.05 З 2 10 км 8/0
[Ac As]
+12.4 +8.4 77 +11 +12 по сезону 1017.7 1017.0 +11.1 +13.8
15 21.05 З 3 10 км 1/0
[Ac As]
+16.8 +8.0 56 +17 +22 тепло 1017.5 1016.8
18 21.05 ЮЗ 3 10 км 1/1 600 м
[Cu hum]
+17.8 +7.8 52 +18 +22 тепло 1017.0 1016.4
21 21.05 ЮЗ 3 10 км ясно +15.2 +3.5 45 +15 +15 по сезону 1018.2 1017.6
00 22.05 З 2 10 км ясно +14.0 +5.1 55 +14 +14 по сезону 1019.8 1019.2 +12.4 +18.3
03 22.05 ЮЗ 2 10 км ясно +12.2 +3.8 56 +12 +12 по сезону 1020.2 1019.6
06 22.05 З 2 10 км ясно +10.6 +4.4 65 +9 +9 прохладно 1021.0 1020.4
09 22.05 ЮЗ 2 10 км 4/0
[Ci]
+9.0 +3.8 70 +8 +8 прохладно 1021.1 1020.4
12 22.05 ЮЗ 1 10 км 4/0
[Cs]
+10.3 +3.5 63 +10 +11 по сезону 1022.5 1021.8 +8.5 +14.0
15 22.05 З 3 10 км 1/0
[Ci fib]
+14.7 +3.1 46 +14 +19 по сезону 1022.4 1021.7
18 22.05 З 3 10 км ясно +16.9 +2.8 39 +17 +20 тепло 1020.6 1020.0
21 22.05 З 3 10 км 1/0
[Ci fib]
+15.5 +3.1 43 +15 +15 по сезону 1020.9 1020.2
00 23.05 СЗ 2 10 км ясно +13.4 +4.6 55 +13 +13 по сезону 1021.4 1020.8 +10.3 +17.0
03 23.05 З 3 10 км ясно +12.0 +5.1 63 +11 +11 по сезону 1021.4 1020.8
06 23.05 З 3 10 км ясно +11.5 +4.8 63 +10 +10 по сезону 1021.8 1021.2
09 23.05 З 3 10 км 4/0
[Cs]
+10.8 +3.6 61 +9 +9 по сезону 1021.7 1021.0
12 23.05 З 5 10 км 3/0
[Ac trans Cs]
+11.5 +3.1 56 +9 +10 по сезону 1023.5 1022.8 +10.8 +13.4
15 23.05 З 4 10 км 1/0
[Ac trans Ci fib]
+16.6 +4.4 44 +16 +21 тепло 1023.8 1023.2
18 23.05 З 4 10 км 1/0
[Ci fib]
+19.4 +7.4 46 +20 +23 тепло 1022.5 1021.8
21 23.05 З 2 10 км ясно +17.8 +7.7 52 +19 +19 тепло 1022.9 1022.2
00 24.05 З 2 10 км 1/0
[Ac trans]
+16.0 +8.2 60 +16 +16 тепло 1023.9 1023.2 +11.5 +20.4
03 24.05 З 3 10 км ясно +15.2 +6.4 56 +15 +15 тепло 1024.4 1023.7
06 24.05 З 3 10 км ясно +13.7 +6.8 63 +13 +13 по сезону 1024.1 1023.4
09 24.05 З 5 10 км ясно +12.7 +6.5 66 +11 +11 по сезону 1024.2 1023.6
12 24.05 З 3 10 км 3/0
[Ci fib]
+13.5 +5.5 58 +13 +13 тепло 1025.3 1024.6 +12.5 +16.0
15 24.05 З 3 10 км ясно +18.3 +6.6 46 +19 +25 тепло 1025.7 1025.0
18 24.05 С 4 10 км ясно +18.2 +10.9 62 +18 +21 тепло 1023.8 1023.2
21 24.05 С 2 10 км 4/0
[Ci]
+16.0 +13.0 82 +16 +16 тепло 1023.3 1022.6

 

Местоположение метеостанции Buenos Aires Aeropuerto (Аргентина): широта -34.56 долгота -58.41 высота над уровнем моря 6 м.

В архиве по умолчанию представлена погода в Buenos Aires Aeropuerto за последнюю неделю. Архивные данные за месяц целиком и за предыдущие месяцы, начиная с января 2011 года, Вы можете получить, выбрав интересующий диапазон дат из раскрывающегося списка и нажав кнопку "Ввод!".


*Определитесь, кто Вы:
робот инопланетянин человек

Внимание! Время в таблицах - всемирное. Для получения местного времени необходимо прибавить поправку, которая в Buenos Aires Aeropuerto равна -3 ч.

Смотрите также архив погоды в соседних городах и на ближайших метеорологических станциях:

Погода в Buenos Aires (Аргентина) (7 км)
Погода в Ezeiza (Аргентина) (30 км)
Погода в Colonia (Уругвай) (55 км)
Погода в La Plata (Аргентина) (64 км)
Погода в Mercedes (Уругвай) (149 км)
Погода в Gualeguaychu (Аргентина) (174 км)
Погода в Las Flores (Аргентина) (179 км)
Погода в Melilla (Уругвай) (199 км)
Погода в Prado (Уругвай) (205 км)
Погода в Dolores (Аргентина) (206 км)

Пояснения к столбцам:

Ветер - указаны скорость ветра в м/с - средняя за 10 мин, порывы в срок и между сроками (в фигурных скобках) и направление, откуда дует ветер: С - северный, СВ - северо-восточный, В - восточный, ЮВ - юго-восточный, Ю - южный, ЮЗ - юго-западный, З - западный, СЗ - северо-западный.
Видимость - горизонтальная дальность видимости в метрах или километрах. При видимости от 1 до 10 км при отсутствии осадков обычно наблюдается дымка, при ухудшении видимости до 1 км и менее - туман. В сухую погоду видимость может ухудшаться дымом, пылью или мглою.
Явления - указаны атмосферные явления, наблюдавшиеся в срок или в последний час перед сроком; фигурными скобками обозначены явления, наблюдавшиеся между сроками (за 1-3 часа до срока); квадратными скобками обозначены град или гололедные отложения с указанием их диаметра в мм.
Облачность - указаны через наклонную черту общая и нижняя облачность в баллах и высота нижней границы облаков в метрах; квадратными скобками обозначены формы облаков: Ci - перистые, Cs - перисто-слоистые, Cc - перисто-кучевые, Ac - высококучевые, As - высокослоистые, Sc - слоисто-кучевые, Ns - слоисто-дождевые, Cu - кучевые, Cb - кучево-дождевые. Подробнее классификацию облаков см. в Атласе облаков (PDF).
T - Температура воздуха - температура, измеренная на высоте 2 м над землей.
Td - Температура точки росы - температура, при понижении до которой содержащийся в воздухе водяной пар достигнет насыщения.
f - Относительная влажность воздуха - влажноcть воздуха, измеренная на высоте 2 м над землей.
Te - Эффективная температура - температура, которую ощущает одетый по сезону человек в тени. Характеристика душности погоды. При расчете учитывается влияние влажности воздуха и скорости ветра на теплоощущения человека.
Tes - Эффективная температура на солнце - температура, которую ощущает человек, с поправкой на солнечный нагрев. Характеристика знойности погоды. Зависит от высоты солнца над горизонтом, облачности и скорости ветра. Ночью, в пасмурную погоду, а также при ветре 12 м/с и более поправка равна нулю.
P - Атмосферное давление - приведенное к уровню моря атмосферное давление.
Po - Атмосферное давление - измеренное на уровне метеостанции атмосферное давление.
Tmin - Минимальная температура - минимум температуры воздуха на высоте 2 м над землей.
Tmax - Максимальная температура - максимум температуры воздуха на высоте 2 м над землей.
R - Количество осадков - Количество выпавших осадков за период времени, мм. При наведении курсора мыши на число - период времени, за который выпало указанное количество осадков.
R24 - Количество осадков - Количество выпавших осадков за 24 часа, мм.
S - Снежный покров - Высота снежного покрова, см. При наведении курсора мыши на число - состояние снежного покрова и степень покрытия местности в баллах.